Flag for Bahamas Weather past 2 weeks in Freeport, Bahamas

Now
71 °F

Passing clouds.


Feels Like: 75 °F
Forecast: 71 / 76 °F
Wind: 10 mph from South

Location: Palm Beach International Airport

Current Time: Feb 1, 2015 at 9:56:45 PM

Latest Report: Feb 1, 2015 at 8:53 PM


Visibility: 10 mi

Pressure: 30.09 "Hg

Humidity: 63%

Dew point: 58 °F

Location of FreeportLocation

Historic Weather in Freeport — Graph

°F

Freeport temperature yesterday

Maximum temperature yesterday: 74 °F (at 1:53 PM)
Minimum temperature yesterday: 53 °F (at 6:53 AM)
Average temperature yesterday: 66 °F

Past Weeks' High & Low Weather Summary

 TemperatureHumidityPressure
High80 °F (Jan 23, 2:53 PM)97% (Jan 19, 6:53 AM)30.28 "Hg (Jan 19, 6:53 AM)
Low47 °F (Jan 25, 6:53 AM)22% (Jan 28, 2:53 PM)29.82 "Hg (Jan 26, 2:53 PM)
Average66 °F65%30.08 "Hg
* Reported Jan 17 8:53 PM — Feb 1 8:53 PM, Freeport, Weather by CustomWeather, © 2014

Note: Actual official high and low records may vary slightly from our data, if they occured in-between our weather recording intervals... More about our weather records

Advertising

Freeport weather history for previous 24 hours

 ConditionsComfort  
Time TempWeatherWind HumidityBarometerVisibility
8:53 PM
Feb 1
71 °FPassing clouds.10 mph63%30.09 "Hg10 mi
7:53 PM71 °FPartly cloudy.10 mph61%30.09 "Hg10 mi
6:53 PM71 °FPartly cloudy.9 mph61%30.09 "Hg10 mi
5:53 PM72 °FPartly sunny.17 mph59%30.10 "Hg10 mi
4:53 PM74 °FScattered clouds.15 mph48%30.10 "Hg10 mi
3:53 PM75 °FScattered clouds.14 mph48%30.11 "Hg10 mi
2:53 PM73 °FBroken clouds.14 mph57%30.13 "Hg10 mi
1:53 PM76 °FBroken clouds.16 mph47%30.14 "Hg10 mi
12:53 PM76 °FPartly sunny.18 mph52%30.18 "Hg10 mi
11:53 AM73 °FPartly sunny.16 mph53%30.21 "Hg10 mi
10:53 AM74 °FPartly sunny.15 mph48%30.23 "Hg10 mi
9:53 AM72 °FPartly sunny.17 mph52%30.22 "Hg10 mi
8:53 AM70 °FPartly sunny.18 mph55%30.22 "Hg10 mi
7:53 AM68 °FPartly sunny.13 mph61%30.22 "Hg10 mi
6:53 AM68 °FPartly cloudy.17 mph61%30.20 "Hg10 mi
5:53 AM68 °FPartly cloudy.17 mph59%30.20 "Hg10 mi
4:53 AM67 °FPartly cloudy.16 mph59%30.19 "Hg10 mi
3:53 AM66 °FPassing clouds.14 mph54%30.19 "Hg10 mi
2:53 AM67 °FPassing clouds.14 mph55%30.19 "Hg10 mi
1:53 AM67 °FPartly cloudy.18 mph55%30.21 "Hg10 mi
12:53 AM68 °FPassing clouds.12 mph55%30.21 "Hg10 mi
11:53 PM
Jan 31
67 °FPartly cloudy.13 mph51%30.22 "Hg10 mi
10:53 PM68 °FPartly cloudy.14 mph53%30.23 "Hg10 mi
9:53 PM68 °FPartly cloudy.14 mph51%30.24 "Hg10 mi
Weather by CustomWeather, © 2014

See weather overviewHow to use our weather pages